QPF
0.00 0.00 0.00 0.00 0.00 0.00 0.00 0.00 0.00 0.00 0.00 0.00 0.00 0.00 0.00 0.00 0.00 0.00 0.00 0.00 0.00 0.00 0.00 0.00 0.00 0.01 0.01 0.01 0.01 0.02 0.01 0.00 0.01 0.03 0.04 0.04 0.05 0.07 0.08 0.12 0.15 0.11 0.05 0.04
0.00 0.00 0.00 0.00 0.00 0.00 0.00 0.00 0.00 0.00 0.00 0.00 0.00 0.00 0.00 0.00 0.00 0.00 0.00 0.00 0.00 0.01 0.01 0.01 0.01 0.01 0.01 0.01 0.01 0.01 0.02 0.01 0.02 0.04 0.04 0.04 0.05 0.06 0.05 0.07 0.13 0.13 0.06 0.04
0.00 0.00 0.00 0.00 0.00 0.00 0.00 0.00 0.00 0.00 0.00 0.00 0.01 0.01 0.00 0.00 0.00 0.00 0.01 0.01 0.01 0.01 0.01 0.01 0.01 0.01 0.01 0.01 0.01 0.01 0.01 0.01 0.02 0.07 0.04 0.03 0.05 0.05 0.05 0.06 0.10 0.11 0.06 0.04
0.00 0.00 0.00 0.00 0.00 0.00 0.00 0.00 0.00 0.00 0.01 0.01 0.01 0.01 0.01 0.01 0.00 0.00 0.01 0.01 0.01 0.02 0.01 0.02 0.03 0.02 0.03 0.03 0.02 0.02 0.02 0.01 0.02 0.05 0.04 0.04 0.03 0.04 0.05 0.06 0.08 0.08 0.06 0.05
0.00 0.00 0.00 0.00 0.00 0.00 0.00 0.00 0.00 0.00 0.00 0.00 0.01 0.01 0.01 0.01 0.01 0.01 0.01 0.01 0.01 0.02 0.01 0.04 0.09 0.09 0.08 0.09 0.06 0.02 0.01 0.01 0.01 0.02 0.05 0.06 0.06 0.06 0.07 0.07 0.07 0.06 0.06 0.06
0.00 0.00 0.00 0.00 0.00 0.00 0.00 0.00 0.00 0.00 0.00 0.00 0.00 0.00 0.01 0.00 0.01 0.02 0.01 0.02 0.02 0.01 0.01 0.03 0.07 0.10 0.10 0.07 0.05 0.02 0.01 0.01 0.01 0.02 0.03 0.05 0.06 0.06 0.09 0.12 0.10 0.07 0.07 0.07
0.00 0.00 0.00 0.00 0.00 0.00 0.00 0.00 0.00 0.00 0.00 0.00 0.00 0.00 0.00 0.00 0.01 0.01 0.01 0.02 0.02 0.01 0.01 0.02 0.03 0.04 0.04 0.03 0.04 0.04 0.02 0.02 0.02 0.02 0.02 0.02 0.03 0.05 0.08 0.12 0.13 0.10 0.09 0.08
0.00 0.00 0.00 0.00 0.00 0.00 0.00 0.00 0.00 0.00 0.00 0.00 0.00 0.00 0.00 0.00 0.00 0.01 0.02 0.02 0.01 0.01 0.01 0.01 0.02 0.04 0.03 0.03 0.02 0.03 0.03 0.03 0.02 0.02 0.02 0.02 0.01 0.01 0.04 0.11 0.15 0.15 0.14 0.12
0.00 0.00 0.00 0.00 0.00 0.00 0.00 0.00 0.00 0.00 0.00 0.00 0.00 0.00 0.00 0.00 0.01 0.01 0.02 0.01 0.01 0.01 0.01 0.02 0.02 0.03 0.03 0.03 0.03 0.04 0.03 0.03 0.02 0.02 0.02 0.01 0.01 0.01 0.01 0.03 0.04 0.03 0.06 0.10
0.00 0.00 0.00 0.00 0.00 0.00 0.00 0.00 0.00 0.00 0.00 0.00 0.00 0.00 0.00 0.00 0.00 0.00 0.01 0.01 0.01 0.01 0.01 0.01 0.02 0.02 0.04 0.05 0.07 0.05 0.03 0.02 0.02 0.03 0.03 0.02 0.01 0.01 0.02 0.02 0.01 0.01 0.01 0.02
0.00 0.00 0.00 0.00 0.00 0.00 0.00 0.00 0.00 0.00 0.00 0.00 0.00 0.00 0.00 0.00 0.00 0.00 0.00 0.00 0.01 0.00 0.00 0.00 0.00 0.02 0.05 0.07 0.09 0.07 0.05 0.04 0.04 0.04 0.03 0.03 0.03 0.04 0.04 0.04 0.03 0.03 0.03 0.03
0.00 0.00 0.00 0.00 0.00 0.00 0.00 0.00 0.00 0.00 0.00 0.00 0.00 0.00 0.00 0.00 0.00 0.00 0.00 0.00 0.00 0.00 0.00 0.00 0.01 0.02 0.03 0.03 0.04 0.04 0.05 0.05 0.05 0.04 0.04 0.04 0.05 0.05 0.05 0.05 0.05 0.05 0.04 0.03
0.00 0.00 0.00 0.00 0.00 0.00 0.00 0.00 0.00 0.00 0.00 0.00 0.00 0.00 0.00 0.01 0.01 0.00 0.00 0.00 0.00 0.00 0.01 0.01 0.01 0.01 0.02 0.02 0.02 0.02 0.03 0.03 0.04 0.04 0.05 0.06 0.05 0.05 0.05 0.06 0.07 0.07 0.07 0.08
0.00 0.00 0.00 0.00 0.00 0.00 0.00 0.00 0.00 0.00 0.00 0.00 0.00 0.00 0.01 0.01 0.01 0.01 0.00 0.00 0.01 0.01 0.01 0.02 0.01 0.01 0.01 0.03 0.02 0.02 0.02 0.01 0.01 0.02 0.03 0.04 0.05 0.05 0.06 0.06 0.07 0.10 0.11 0.11
0.00 0.00 0.00 0.00 0.00 0.00 0.00 0.00 0.00 0.00 0.00 0.00 0.00 0.00 0.01 0.01 0.01 0.01 0.01 0.01 0.02 0.01 0.01 0.01 0.01 0.01 0.01 0.02 0.02 0.02 0.02 0.01 0.02 0.02 0.03 0.03 0.04 0.05 0.06 0.08 0.09 0.09 0.10 0.10
0.00 0.00 0.00 0.00 0.00 0.00 0.00 0.00 0.00 0.00 0.00 0.00 0.00 0.00 0.01 0.01 0.01 0.01 0.01 0.01 0.02 0.02 0.02 0.02 0.02 0.01 0.01 0.01 0.02 0.02 0.02 0.02 0.02 0.02 0.02 0.03 0.04 0.04 0.06 0.08 0.08 0.08 0.07 0.06
0.00 0.00 0.00 0.00 0.00 0.01 0.00 0.00 0.01 0.00 0.00 0.00 0.00 0.00 0.00 0.01 0.01 0.01 0.01 0.01 0.01 0.01 0.01 0.02 0.03 0.03 0.03 0.03 0.04 0.04 0.02 0.02 0.02 0.02 0.03 0.03 0.04 0.06 0.08 0.09 0.07 0.06 0.05 0.04
0.00 0.00 0.00 0.00 0.00 0.01 0.00 0.00 0.01 0.01 0.01 0.00 0.00 0.00 0.00 0.01 0.01 0.01 0.01 0.01 0.01 0.00 0.01 0.01 0.02 0.03 0.04 0.04 0.05 0.07 0.08 0.05 0.03 0.02 0.03 0.03 0.05 0.06 0.06 0.05 0.04 0.05 0.05 0.05
0.00 0.00 0.00 0.00 0.00 0.00 0.00 0.01 0.02 0.02 0.01 0.00 0.00 0.00 0.00 0.01 0.01 0.01 0.01 0.01 0.01 0.01 0.01 0.01 0.01 0.02 0.02 0.02 0.02 0.03 0.05 0.05 0.05 0.03 0.03 0.04 0.04 0.04 0.04 0.04 0.05 0.05 0.05 0.05
0.00 0.00 0.00 0.00 0.01 0.01 0.01 0.01 0.01 0.01 0.01 0.00 0.00 0.00 0.01 0.01 0.01 0.01 0.01 0.01 0.02 0.02 0.01 0.01 0.01 0.01 0.01 0.01 0.01 0.02 0.05 0.05 0.03 0.04 0.04 0.04 0.04 0.04 0.04 0.03 0.03 0.04 0.05 0.05
0.00 0.00 0.00 0.00 0.00 0.00 0.00 0.01 0.01 0.01 0.01 0.00 0.00 0.00 0.01 0.02 0.01 0.01 0.01 0.01 0.01 0.01 0.01 0.01 0.01 0.01 0.01 0.01 0.01 0.01 0.02 0.03 0.03 0.03 0.04 0.03 0.03 0.03 0.03 0.03 0.03 0.04 0.04 0.05
0.01 0.00 0.00 0.00 0.00 0.00 0.00 0.01 0.01 0.01 0.01 0.01 0.01 0.01 0.02 0.01 0.01 0.02 0.02 0.02 0.01 0.01 0.01 0.01 0.01 0.02 0.02 0.02 0.01 0.02 0.02 0.03 0.03 0.04 0.05 0.04 0.03 0.03 0.03 0.03 0.04 0.07 0.09 0.08
0.01 0.01 0.01 0.01 0.00 0.00 0.00 0.00 0.01 0.01 0.01 0.01 0.01 0.01 0.01 0.01 0.02 0.03 0.03 0.02 0.03 0.04 0.04 0.04 0.03 0.02 0.02 0.02 0.02 0.02 0.02 0.04 0.05 0.06 0.07 0.07 0.05 0.05 0.05 0.05 0.06 0.08 0.10 0.11
0.00 0.00 0.00 0.00 0.00 0.00 0.00 0.00 0.00 0.01 0.02 0.02 0.02 0.01 0.02 0.03 0.03 0.04 0.04 0.04 0.04 0.05 0.06 0.05 0.04 0.03 0.02 0.03 0.03 0.03 0.04 0.04 0.05 0.07 0.08 0.10 0.10 0.09 0.09 0.10 0.08 0.08 0.09 0.09
0.00 0.00 0.00 0.00 0.00 0.00 0.01 0.01 0.01 0.01 0.01 0.01 0.02 0.02 0.03 0.04 0.05 0.06 0.06 0.05 0.05 0.05 0.06 0.06 0.05 0.04 0.04 0.03 0.03 0.04 0.04 0.04 0.04 0.04 0.05 0.06 0.08 0.09 0.09 0.09 0.10 0.09 0.08 0.07
0.00 0.00 0.01 0.01 0.00 0.01 0.01 0.01 0.01 0.01 0.01 0.01 0.02 0.02 0.03 0.03 0.03 0.05 0.07 0.06 0.05 0.05 0.06 0.05 0.06 0.06 0.05 0.04 0.04 0.04 0.04 0.04 0.04 0.04 0.04 0.05 0.06 0.07 0.07 0.07 0.06 0.06 0.06 0.05
MSLP
1008.22 1009.25 1010.12 1010.82 1011.36 1011.79 1012.14 1012.46 1012.75 1013.03 1013.25 1013.40 1013.46 1013.42 1013.32 1013.17 1013.04 1012.97 1012.99 1013.11 1013.32 1013.58 1013.85 1014.11 1014.33 1014.51 1014.68 1014.86 1015.08 1015.36 1015.72 1016.12 1016.54 1016.94 1017.28 1017.54 1017.71 1017.81 1017.85 1017.88 1017.93 1018.01 1018.14 1018.30
1008.87 1009.71 1010.39 1010.91 1011.33 1011.69 1012.05 1012.44 1012.85 1013.24 1013.57 1013.81 1013.90 1013.85 1013.69 1013.47 1013.25 1013.10 1013.06 1013.13 1013.32 1013.57 1013.85 1014.11 1014.32 1014.49 1014.62 1014.76 1014.95 1015.22 1015.58 1016.02 1016.50 1016.98 1017.40 1017.72 1017.93 1018.02 1018.02 1017.97 1017.91 1017.88 1017.89 1017.96
1009.28 1009.90 1010.37 1010.74 1011.07 1011.43 1011.87 1012.39 1012.97 1013.53 1014.01 1014.33 1014.45 1014.36 1014.10 1013.74 1013.38 1013.09 1012.94 1012.95 1013.10 1013.37 1013.68 1013.98 1014.23 1014.41 1014.56 1014.69 1014.87 1015.14 1015.51 1015.97 1016.50 1017.03 1017.50 1017.86 1018.08 1018.15 1018.09 1017.95 1017.77 1017.61 1017.51 1017.48
1009.47 1009.87 1010.14 1010.39 1010.68 1011.11 1011.68 1012.41 1013.21 1013.98 1014.61 1015.00 1015.11 1014.94 1014.52 1013.97 1013.40 1012.92 1012.61 1012.52 1012.64 1012.92 1013.28 1013.65 1013.97 1014.22 1014.41 1014.58 1014.77 1015.04 1015.41 1015.88 1016.43 1016.98 1017.48 1017.86 1018.08 1018.12 1018.00 1017.78 1017.50 1017.23 1017.02 1016.90
1009.51 1009.69 1009.81 1009.98 1010.29 1010.83 1011.60 1012.56 1013.60 1014.58 1015.36 1015.81 1015.88 1015.58 1014.96 1014.16 1013.33 1012.61 1012.12 1011.90 1011.96 1012.24 1012.66 1013.12 1013.54 1013.89 1014.15 1014.36 1014.58 1014.85 1015.21 1015.68 1016.21 1016.77 1017.27 1017.65 1017.87 1017.89 1017.74 1017.46 1017.12 1016.77 1016.49 1016.31
1009.45 1009.46 1009.46 1009.60 1009.98 1010.66 1011.64 1012.85 1014.12 1015.29 1016.19 1016.67 1016.67 1016.21 1015.37 1014.30 1013.20 1012.23 1011.53 1011.18 1011.17 1011.44 1011.91 1012.46 1012.99 1013.43 1013.77 1014.04 1014.28 1014.54 1014.89 1015.32 1015.82 1016.36 1016.85 1017.23 1017.45 1017.48 1017.34 1017.05 1016.69 1016.33 1016.01 1015.79
1009.36 1009.23 1009.17 1009.32 1009.79 1010.63 1011.80 1013.21 1014.68 1016.00 1016.97 1017.45 1017.37 1016.75 1015.70 1014.38 1013.03 1011.83 1010.95 1010.47 1010.39 1010.66 1011.17 1011.79 1012.40 1012.93 1013.35 1013.66 1013.90 1014.15 1014.46 1014.84 1015.30 1015.80 1016.28 1016.66 1016.90 1016.97 1016.87 1016.62 1016.30 1015.96 1015.66 1015.44
1009.25 1009.05 1008.97 1009.16 1009.72 1010.68 1012.01 1013.57 1015.16 1016.56 1017.56 1018.01 1017.84 1017.09 1015.87 1014.37 1012.84 1011.48 1010.46 1009.89 1009.76 1010.02 1010.56 1011.24 1011.92 1012.51 1012.96 1013.29 1013.54 1013.75 1014.01 1014.34 1014.75 1015.21 1015.66 1016.06 1016.34 1016.47 1016.43 1016.27 1016.02 1015.74 1015.48 1015.30
1009.11 1008.89 1008.84 1009.08 1009.71 1010.77 1012.17 1013.80 1015.42 1016.83 1017.81 1018.21 1017.97 1017.12 1015.81 1014.23 1012.62 1011.19 1010.12 1009.52 1009.38 1009.64 1010.20 1010.90 1011.61 1012.23 1012.71 1013.04 1013.26 1013.44 1013.64 1013.92 1014.27 1014.69 1015.14 1015.54 1015.87 1016.06 1016.12 1016.05 1015.89 1015.69 1015.50 1015.35
1008.94 1008.76 1008.76 1009.06 1009.74 1010.82 1012.22 1013.81 1015.38 1016.72 1017.62 1017.95 1017.66 1016.79 1015.48 1013.92 1012.34 1010.96 1009.94 1009.36 1009.25 1009.54 1010.11 1010.82 1011.53 1012.15 1012.62 1012.93 1013.13 1013.28 1013.43 1013.66 1013.97 1014.36 1014.79 1015.21 1015.57 1015.83 1015.97 1015.98 1015.92 1015.80 1015.67 1015.56
1008.71 1008.63 1008.71 1009.07 1009.77 1010.81 1012.13 1013.59 1015.01 1016.19 1016.97 1017.22 1016.90 1016.07 1014.85 1013.41 1011.98 1010.75 1009.85 1009.38 1009.34 1009.66 1010.24 1010.94 1011.64 1012.23 1012.68 1012.97 1013.15 1013.28 1013.41 1013.61 1013.89 1014.26 1014.68 1015.10 1015.48 1015.78 1015.97 1016.06 1016.05 1015.99 1015.91 1015.83
1008.47 1008.52 1008.71 1009.12 1009.80 1010.75 1011.92 1013.17 1014.37 1015.34 1015.95 1016.11 1015.79 1015.03 1013.96 1012.73 1011.52 1010.51 1009.80 1009.48 1009.53 1009.89 1010.47 1011.15 1011.81 1012.38 1012.80 1013.08 1013.26 1013.39 1013.53 1013.72 1014.00 1014.35 1014.76 1015.17 1015.55 1015.86 1016.08 1016.19 1016.22 1016.19 1016.13 1016.07
1008.27 1008.48 1008.78 1009.24 1009.88 1010.70 1011.66 1012.65 1013.57 1014.30 1014.71 1014.76 1014.44 1013.78 1012.89 1011.90 1010.96 1010.20 1009.71 1009.55 1009.69 1010.10 1010.67 1011.32 1011.94 1012.47 1012.88 1013.17 1013.38 1013.54 1013.71 1013.93 1014.21 1014.56 1014.95 1015.35 1015.71 1016.00 1016.20 1016.31 1016.34 1016.32 1016.26 1016.20
1008.20 1008.57 1008.98 1009.47 1010.05 1010.72 1011.43 1012.14 1012.76 1013.20 1013.41 1013.34 1013.01 1012.44 1011.74 1010.99 1010.32 1009.81 1009.53 1009.52 1009.75 1010.18 1010.74 1011.34 1011.92 1012.43 1012.84 1013.16 1013.41 1013.63 1013.86 1014.13 1014.45 1014.80 1015.17 1015.53 1015.85 1016.10 1016.26 1016.35 1016.36 1016.33 1016.27 1016.20
1008.34 1008.86 1009.36 1009.85 1010.35 1010.85 1011.31 1011.72 1012.03 1012.19 1012.19 1012.00 1011.64 1011.16 1010.62 1010.09 1009.65 1009.36 1009.26 1009.37 1009.66 1010.09 1010.62 1011.18 1011.72 1012.21 1012.63 1013.00 1013.32 1013.62 1013.93 1014.26 1014.61 1014.98 1015.33 1015.65 1015.92 1016.11 1016.23 1016.27 1016.26 1016.21 1016.15 1016.09
1008.75 1009.36 1009.91 1010.39 1010.78 1011.09 1011.31 1011.44 1011.45 1011.35 1011.14 1010.83 1010.45 1010.03 1009.62 1009.27 1009.01 1008.90 1008.93 1009.12 1009.43 1009.85 1010.33 1010.84 1011.35 1011.83 1012.27 1012.69 1013.09 1013.49 1013.88 1014.28 1014.67 1015.04 1015.38 1015.66 1015.87 1016.02 1016.09 1016.10 1016.07 1016.01 1015.96 1015.91
1009.41 1010.06 1010.60 1011.01 1011.28 1011.40 1011.39 1011.25 1011.01 1010.68 1010.30 1009.89 1009.48 1009.10 1008.79 1008.57 1008.46 1008.46 1008.58 1008.81 1009.13 1009.52 1009.95 1010.41 1010.89 1011.36 1011.84 1012.31 1012.79 1013.26 1013.73 1014.18 1014.61 1014.98 1015.30 1015.54 1015.72 1015.82 1015.85 1015.85 1015.81 1015.77 1015.73 1015.71
1010.25 1010.86 1011.33 1011.63 1011.75 1011.68 1011.45 1011.09 1010.63 1010.13 1009.61 1009.13 1008.70 1008.37 1008.14 1008.02 1008.00 1008.09 1008.27 1008.52 1008.83 1009.18 1009.57 1009.99 1010.44 1010.91 1011.41 1011.93 1012.46 1013.00 1013.52 1014.01 1014.45 1014.82 1015.12 1015.33 1015.47 1015.55 1015.58 1015.57 1015.55 1015.54 1015.53 1015.53
1011.14 1011.64 1011.98 1012.12 1012.06 1011.81 1011.39 1010.85 1010.23 1009.60 1009.00 1008.49 1008.07 1007.79 1007.63 1007.59 1007.66 1007.81 1008.03 1008.29 1008.58 1008.91 1009.26 1009.65 1010.08 1010.55 1011.06 1011.61 1012.18 1012.75 1013.29 1013.79 1014.23 1014.59 1014.87 1015.06 1015.18 1015.25 1015.29 1015.30 1015.32 1015.33 1015.36 1015.39
1011.94 1012.26 1012.41 1012.37 1012.12 1011.69 1011.11 1010.43 1009.71 1009.01 1008.39 1007.88 1007.51 1007.29 1007.21 1007.26 1007.40 1007.61 1007.86 1008.14 1008.43 1008.73 1009.07 1009.43 1009.85 1010.31 1010.83 1011.38 1011.95 1012.52 1013.06 1013.55 1013.97 1014.31 1014.57 1014.75 1014.87 1014.95 1015.00 1015.05 1015.10 1015.16 1015.21 1015.25
1012.50 1012.62 1012.55 1012.30 1011.87 1011.27 1010.57 1009.80 1009.03 1008.32 1007.72 1007.27 1006.97 1006.84 1006.85 1006.98 1007.20 1007.46 1007.75 1008.04 1008.34 1008.65 1008.97 1009.33 1009.73 1010.18 1010.68 1011.21 1011.77 1012.31 1012.83 1013.29 1013.67 1013.99 1014.23 1014.41 1014.54 1014.64 1014.73 1014.82 1014.90 1014.99 1015.05 1015.10
1012.76 1012.65 1012.36 1011.91 1011.31 1010.59 1009.79 1008.98 1008.21 1007.54 1007.00 1006.63 1006.44 1006.40 1006.51 1006.72 1007.01 1007.33 1007.66 1007.98 1008.29 1008.60 1008.92 1009.27 1009.66 1010.09 1010.56 1011.06 1011.58 1012.08 1012.55 1012.97 1013.33 1013.62 1013.85 1014.04 1014.19 1014.33 1014.45 1014.57 1014.69 1014.79 1014.86 1014.89
1012.68 1012.37 1011.89 1011.27 1010.53 1009.72 1008.88 1008.06 1007.33 1006.73 1006.29 1006.02 1005.93 1005.99 1006.19 1006.48 1006.82 1007.19 1007.55 1007.90 1008.22 1008.54 1008.86 1009.20 1009.56 1009.97 1010.40 1010.86 1011.32 1011.78 1012.20 1012.58 1012.91 1013.19 1013.43 1013.64 1013.82 1014.00 1014.16 1014.31 1014.45 1014.54 1014.60 1014.60
1012.34 1011.86 1011.22 1010.47 1009.65 1008.79 1007.94 1007.16 1006.50 1005.98 1005.64 1005.48 1005.49 1005.64 1005.90 1006.25 1006.63 1007.03 1007.41 1007.76 1008.09 1008.41 1008.72 1009.04 1009.38 1009.75 1010.15 1010.56 1010.98 1011.38 1011.77 1012.12 1012.44 1012.72 1012.98 1013.22 1013.45 1013.66 1013.86 1014.03 1014.17 1014.26 1014.29 1014.25
1011.83 1011.23 1010.49 1009.67 1008.80 1007.93 1007.12 1006.40 1005.82 1005.40 1005.16 1005.09 1005.17 1005.38 1005.69 1006.06 1006.45 1006.85 1007.22 1007.56 1007.88 1008.17 1008.47 1008.77 1009.08 1009.42 1009.78 1010.15 1010.52 1010.90 1011.26 1011.60 1011.92 1012.23 1012.52 1012.80 1013.07 1013.33 1013.55 1013.74 1013.88 1013.95 1013.94 1013.87
1011.29 1010.61 1009.83 1008.98 1008.12 1007.28 1006.53 1005.89 1005.39 1005.06 1004.89 1004.89 1005.01 1005.25 1005.56 1005.92 1006.29 1006.65 1006.98 1007.29 1007.58 1007.85 1008.11 1008.38 1008.67 1008.97 1009.30 1009.64 1009.99 1010.34 1010.70 1011.05 1011.39 1011.73 1012.07 1012.40 1012.72 1013.01 1013.26 1013.46 1013.59 1013.64 1013.60 1013.49
Thickness
5810 5795 5786 5792 5797 5798 5794 5788 5784 5793 5808 5800 5793 5795 5802 5809 5808 5805 5803 5802 5801 5801 5803 5802 5800 5797 5793 5789 5787 5785 5783 5782 5780 5777 5775 5773 5772 5772 5773 5772 5772 5771 5769 5767
5791 5786 5800 5806 5804 5799 5793 5785 5783 5793 5805 5799 5790 5793 5802 5807 5807 5807 5806 5804 5803 5801 5800 5800 5799 5796 5793 5789 5787 5785 5783 5782 5780 5778 5776 5775 5774 5773 5773 5773 5772 5771 5769 5767
5786 5796 5809 5803 5797 5791 5788 5784 5784 5785 5792 5794 5789 5783 5792 5803 5807 5807 5808 5808 5807 5804 5800 5799 5798 5796 5793 5790 5788 5787 5784 5783 5781 5779 5777 5775 5773 5772 5771 5771 5771 5771 5770 5768
5790 5801 5804 5798 5794 5791 5779 5796 5794 5788 5776 5766 5777 5756 5781 5790 5795 5801 5804 5806 5806 5807 5805 5801 5799 5796 5794 5792 5791 5788 5785 5783 5781 5779 5776 5773 5770 5767 5768 5770 5770 5770 5769 5768
5786 5797 5797 5792 5796 5797 5791 5801 5793 5786 5772 5761 5765 5754 5766 5783 5785 5795 5802 5806 5808 5808 5807 5805 5802 5800 5797 5794 5791 5789 5786 5783 5782 5780 5778 5774 5772 5770 5770 5769 5769 5768 5768 5767
5791 5803 5803 5800 5805 5804 5799 5788 5777 5764 5754 5742 5755 5748 5753 5770 5783 5793 5801 5805 5807 5809 5809 5807 5804 5800 5797 5795 5792 5789 5785 5783 5782 5780 5778 5775 5772 5770 5768 5767 5766 5766 5766 5766
5777 5789 5800 5804 5792 5793 5786 5761 5738 5734 5723 5730 5751 5747 5754 5783 5793 5796 5799 5803 5807 5808 5807 5805 5802 5799 5796 5794 5792 5790 5786 5782 5781 5779 5777 5775 5772 5770 5768 5767 5765 5764 5764 5763
5755 5759 5787 5796 5789 5779 5774 5762 5734 5723 5719 5727 5743 5741 5764 5789 5796 5800 5802 5803 5804 5803 5803 5803 5803 5800 5797 5795 5792 5788 5786 5783 5781 5779 5777 5775 5773 5771 5769 5767 5765 5764 5764 5764
5750 5756 5786 5795 5797 5786 5768 5757 5758 5733 5726 5720 5730 5745 5768 5786 5789 5793 5795 5796 5797 5798 5799 5799 5799 5798 5795 5793 5790 5788 5786 5784 5781 5779 5776 5774 5772 5770 5769 5767 5765 5764 5763 5763
5763 5755 5773 5784 5789 5783 5776 5759 5740 5727 5713 5710 5725 5735 5746 5768 5774 5782 5785 5788 5791 5794 5794 5795 5795 5794 5793 5791 5789 5787 5786 5783 5781 5778 5776 5775 5772 5769 5768 5766 5764 5763 5762 5761
5764 5750 5756 5765 5764 5761 5761 5752 5736 5722 5722 5710 5709 5730 5767 5768 5774 5777 5781 5786 5787 5789 5790 5790 5790 5790 5790 5788 5786 5783 5782 5781 5778 5776 5774 5772 5770 5768 5766 5764 5763 5761 5760 5759
5753 5739 5733 5748 5764 5768 5765 5753 5738 5727 5718 5713 5713 5731 5774 5773 5776 5777 5778 5782 5784 5785 5786 5786 5786 5785 5784 5782 5782 5780 5779 5777 5776 5774 5771 5769 5768 5766 5763 5761 5760 5759 5757 5756
5748 5732 5719 5726 5739 5752 5751 5747 5740 5728 5714 5706 5710 5733 5768 5769 5771 5774 5775 5776 5778 5779 5779 5779 5779 5779 5777 5777 5776 5776 5775 5774 5773 5770 5767 5765 5763 5762 5759 5757 5756 5754 5753 5751
5749 5725 5720 5716 5724 5736 5740 5742 5737 5728 5712 5709 5718 5735 5753 5758 5761 5766 5768 5769 5771 5772 5773 5772 5772 5772 5772 5771 5771 5771 5770 5769 5768 5765 5762 5760 5758 5757 5755 5753 5751 5749 5747 5745
5739 5720 5724 5727 5734 5736 5737 5739 5735 5731 5726 5720 5728 5732 5745 5751 5755 5758 5761 5762 5763 5764 5765 5766 5765 5766 5766 5766 5765 5765 5763 5763 5762 5759 5756 5755 5753 5751 5749 5747 5745 5744 5741 5739
5721 5715 5717 5719 5726 5728 5728 5733 5733 5731 5730 5727 5730 5732 5746 5749 5750 5751 5753 5755 5755 5757 5758 5759 5760 5760 5760 5760 5759 5757 5756 5755 5754 5751 5749 5748 5746 5744 5742 5740 5739 5736 5734 5733
5706 5705 5699 5697 5710 5717 5710 5724 5727 5727 5730 5728 5724 5733 5740 5739 5741 5743 5745 5747 5748 5751 5752 5752 5753 5754 5754 5754 5753 5750 5749 5748 5746 5744 5742 5740 5739 5737 5735 5733 5730 5728 5727 5726
5698 5690 5682 5683 5695 5688 5708 5727 5728 5724 5725 5728 5730 5732 5734 5735 5735 5738 5740 5740 5740 5741 5743 5744 5745 5746 5747 5746 5745 5744 5742 5740 5738 5736 5735 5733 5731 5729 5727 5725 5721 5720 5719 5717
5694 5686 5672 5668 5673 5685 5703 5717 5718 5714 5714 5724 5723 5724 5726 5728 5730 5730 5734 5735 5734 5735 5735 5736 5737 5738 5738 5737 5737 5735 5733 5731 5729 5727 5726 5725 5723 5721 5719 5717 5714 5712 5711 5710
5680 5679 5669 5661 5667 5668 5694 5713 5718 5711 5701 5717 5717 5716 5717 5718 5710 5716 5725 5727 5727 5728 5728 5728 5729 5729 5728 5728 5727 5724 5722 5720 5718 5718 5717 5716 5714 5712 5711 5709 5706 5704 5703 5703
5667 5663 5659 5656 5660 5671 5696 5706 5708 5689 5697 5711 5711 5710 5709 5707 5707 5712 5716 5718 5719 5720 5720 5720 5719 5718 5719 5719 5717 5713 5712 5710 5710 5710 5708 5707 5705 5703 5702 5700 5698 5697 5695 5694
5656 5653 5650 5647 5651 5664 5693 5694 5690 5692 5700 5703 5703 5703 5702 5702 5703 5705 5706 5707 5708 5709 5710 5710 5708 5708 5708 5709 5707 5704 5702 5702 5701 5700 5698 5697 5696 5695 5693 5690 5689 5688 5687 5685
5647 5650 5648 5651 5658 5673 5681 5685 5690 5691 5691 5693 5694 5696 5695 5693 5693 5695 5695 5696 5697 5698 5698 5699 5698 5697 5697 5698 5697 5695 5694 5694 5692 5690 5689 5687 5686 5685 5683 5682 5680 5678 5677 5675
5645 5646 5644 5647 5659 5668 5674 5679 5683 5685 5685 5686 5687 5687 5687 5685 5685 5685 5683 5684 5686 5687 5687 5687 5687 5687 5686 5687 5688 5686 5685 5684 5683 5681 5680 5679 5678 5676 5674 5673 5672 5669 5668 5667
5638 5639 5637 5641 5653 5661 5668 5671 5674 5676 5677 5677 5678 5679 5678 5678 5676 5676 5674 5674 5676 5678 5677 5677 5677 5677 5677 5678 5678 5677 5676 5675 5673 5672 5671 5670 5669 5667 5665 5664 5662 5661 5660 5658
5631 5632 5632 5636 5647 5648 5655 5663 5666 5666 5667 5667 5668 5668 5669 5669 5668 5668 5668 5668 5668 5669 5669 5669 5669 5668 5668 5668 5668 5668 5668 5666 5664 5662 5662 5661 5660 5659 5657 5655 5653 5652 5650 5649